NORTHERN NASSAU  -  Coastal Flood Statement Coastal Flood Statement        SOUTHERN NASSAU  -  Coastal Flood Statement Coastal Flood Statement      

Active alerts

Northern Nassau
  Details for Northern Nassau Coastal Flood Statement
Southern Nassau
  Details for Southern Nassau Coastal Flood Statement


WXM80 ListenWXM80 Stop

You find our weather info also at:

UK Metoffice

WeatherCloud

Weather Underground

Northeastern Weather Network

AWEKAS

Citizen Weather Observer Program (CWOP)

HAMweather, WeatherForYou, PWS Weather


Weather Underground History page Text

Daily Summary for December 8, 2017 Units:  Both    English   Metric
« Previous Day
Next Day »
Daily Weekly Monthly Yearly Custom
  High: Low: Average:
Temperature: 40.8 °F /  4.9 °C 35.9 °F /  2.2 °C 37.9 °F /  3.3 °C
Dew Point: 29.2 °F /  -1.6 °C 21.3 °F /  -5.9 °C 23.5 °F /  -4.7 °C
Humidity: 63 % 51 % 56 %
Wind Speed: 10.3 mph /  16.6 km/h - 2.7 mph /  4.3 km/h
Wind Gust: 17.3 mph /  27.8 km/h - -
Wind:- - West
Pressure: 30.10 in /  1019.2 hPa 29.95 in /  1014.1 hPa -
Precipitation: 0.00 in /  0 mm    
Historical Graphs
 
 
Tabular Data for December 8, 2017
Time Temperature Dew Point Pressure Wind Wind Speed Wind Gust Humidity Rainfall Rate (Hourly)
00:04 40.8 °F /  4.9 °C 29.2 °F /  -1.6 °C 30.02 in /  1016.5 hPa SW 5.7 mph /  9.2 km/h 11.5 mph /  18.5 km/h 63 % 0.00 in /  0 mm
00:14 40.7 °F /  4.8 °C 28.7 °F /  -1.8 °C 30.02 in /  1016.5 hPa West 7.0 mph /  11.3 km/h 10.4 mph /  16.7 km/h 62 % 0.00 in /  0 mm
00:24 40.6 °F /  4.8 °C 28.6 °F /  -1.9 °C 30.03 in /  1016.8 hPa SW 8.4 mph /  13.5 km/h 10.0 mph /  16.1 km/h 62 % 0.00 in /  0 mm
00:29 40.5 °F /  4.7 °C 28.1 °F /  -2.2 °C 30.02 in /  1016.5 hPa WSW 9.3 mph /  15 km/h 17.3 mph /  27.8 km/h 61 % 0.00 in /  0 mm
00:34 40.5 °F /  4.7 °C 28.1 °F /  -2.2 °C 30.02 in /  1016.5 hPa WSW 8.4 mph /  13.5 km/h 10.4 mph /  16.7 km/h 61 % 0.00 in /  0 mm
00:45 40.5 °F /  4.7 °C 27.7 °F /  -2.4 °C 30.02 in /  1016.5 hPa SW 4.5 mph /  7.2 km/h 10.4 mph /  16.7 km/h 60 % 0.00 in /  0 mm
00:50 40.4 °F /  4.7 °C 28.0 °F /  -2.2 °C 30.01 in /  1016.1 hPa West 3.2 mph /  5.1 km/h 8.1 mph /  13 km/h 61 % 0.00 in /  0 mm
01:05 40.1 °F /  4.5 °C 26.9 °F /  -2.8 °C 30.01 in /  1016.1 hPa West 4.1 mph /  6.6 km/h 8.1 mph /  13 km/h 59 % 0.00 in /  0 mm
01:15 39.9 °F /  4.4 °C 27.1 °F /  -2.7 °C 30.01 in /  1016.1 hPa WNW 7.0 mph /  11.3 km/h 13.0 mph /  20.9 km/h 60 % 0.00 in /  0 mm
01:20 39.8 °F /  4.3 °C 26.2 °F /  -3.2 °C 30.01 in /  1016.1 hPa West 6.1 mph /  9.8 km/h 13.8 mph /  22.2 km/h 58 % 0.00 in /  0 mm
01:25 39.7 °F /  4.3 °C 25.7 °F /  -3.5 °C 30.01 in /  1016.1 hPa West 5.7 mph /  9.2 km/h 10.4 mph /  16.7 km/h 57 % 0.00 in /  0 mm
01:30 39.7 °F /  4.3 °C 26.1 °F /  -3.3 °C 30.02 in /  1016.5 hPa WNW 7.9 mph /  12.7 km/h 16.0 mph /  25.7 km/h 58 % 0.00 in /  0 mm
01:35 39.6 °F /  4.2 °C 26.4 °F /  -3.1 °C 30.02 in /  1016.5 hPa SW 3.6 mph /  5.8 km/h 13.8 mph /  22.2 km/h 59 % 0.00 in /  0 mm
01:40 39.6 °F /  4.2 °C 26.4 °F /  -3.1 °C 30.02 in /  1016.5 hPa West 5.6 mph /  9 km/h 11.5 mph /  18.5 km/h 59 % 0.00 in /  0 mm
01:45 39.5 °F /  4.2 °C 25.9 °F /  -3.4 °C 30.02 in /  1016.5 hPa West 5.8 mph /  9.3 km/h 11.5 mph /  18.5 km/h 58 % 0.00 in /  0 mm
01:50 39.4 °F /  4.1 °C 26.2 °F /  -3.2 °C 30.02 in /  1016.5 hPa NW 5.6 mph /  9 km/h 11.5 mph /  18.5 km/h 59 % 0.00 in /  0 mm
01:55 39.3 °F /  4.1 °C 26.2 °F /  -3.2 °C 30.02 in /  1016.5 hPa WSW 6.3 mph /  10.1 km/h 10.0 mph /  16.1 km/h 59 % 0.00 in /  0 mm
02:00 39.3 °F /  4.1 °C 26.2 °F /  -3.2 °C 30.03 in /  1016.8 hPa West 5.9 mph /  9.5 km/h 12.7 mph /  20.4 km/h 59 % 0.00 in /  0 mm
02:05 39.2 °F /  4 °C 25.6 °F /  -3.6 °C 30.03 in /  1016.8 hPa West 4.6 mph /  7.4 km/h 8.1 mph /  13 km/h 58 % 0.00 in /  0 mm
02:06 39.2 °F /  4 °C 25.2 °F /  -3.8 °C 30.03 in /  1016.8 hPa West 6.1 mph /  9.8 km/h 8.1 mph /  13 km/h 57 % 0.00 in /  0 mm
02:11 39.1 °F /  3.9 °C 25.1 °F /  -3.8 °C 30.03 in /  1016.8 hPa West 6.0 mph /  9.7 km/h 9.0 mph /  14.5 km/h 57 % 0.00 in /  0 mm
02:16 39.0 °F /  3.9 °C 25.0 °F /  -3.9 °C 30.03 in /  1016.8 hPa West 6.6 mph /  10.6 km/h 10.4 mph /  16.7 km/h 57 % 0.00 in /  0 mm
02:21 38.9 °F /  3.8 °C 24.5 °F /  -4.2 °C 30.03 in /  1016.8 hPa WSW 7.6 mph /  12.2 km/h 13.8 mph /  22.2 km/h 56 % 0.00 in /  0 mm
02:26 38.9 °F /  3.8 °C 24.1 °F /  -4.4 °C 30.03 in /  1016.8 hPa West 6.1 mph /  9.8 km/h 9.2 mph /  14.8 km/h 55 % 0.00 in /  0 mm
02:31 38.8 °F /  3.8 °C 24.0 °F /  -4.4 °C 30.04 in /  1017.2 hPa West 6.1 mph /  9.8 km/h 10.4 mph /  16.7 km/h 55 % 0.00 in /  0 mm
02:36 38.8 °F /  3.8 °C 24.4 °F /  -4.2 °C 30.04 in /  1017.2 hPa WNW 2.3 mph /  3.7 km/h 8.1 mph /  13 km/h 56 % 0.00 in /  0 mm
02:41 38.7 °F /  3.7 °C 24.3 °F /  -4.3 °C 30.03 in /  1016.8 hPa West 6.4 mph /  10.3 km/h 10.4 mph /  16.7 km/h 56 % 0.00 in /  0 mm
02:46 38.6 °F /  3.7 °C 23.8 °F /  -4.6 °C 30.04 in /  1017.2 hPa SW 5.2 mph /  8.4 km/h 11.5 mph /  18.5 km/h 55 % 0.00 in /  0 mm
02:51 38.5 °F /  3.6 °C 23.7 °F /  -4.6 °C 30.04 in /  1017.2 hPa West 5.8 mph /  9.3 km/h 11.5 mph /  18.5 km/h 55 % 0.00 in /  0 mm
03:01 38.4 °F /  3.6 °C 24.1 °F /  -4.4 °C 30.04 in /  1017.2 hPa WNW 5.3 mph /  8.5 km/h 10.4 mph /  16.7 km/h 56 % 0.00 in /  0 mm
03:07 38.3 °F /  3.5 °C 24.4 °F /  -4.2 °C 30.04 in /  1017.2 hPa West 4.3 mph /  6.9 km/h 6.9 mph /  11.1 km/h 57 % 0.00 in /  0 mm
03:12 38.2 °F /  3.4 °C 24.7 °F /  -4.1 °C 30.04 in /  1017.2 hPa WSW 4.3 mph /  6.9 km/h 6.9 mph /  11.1 km/h 58 % 0.00 in /  0 mm
03:27 37.9 °F /  3.3 °C 23.2 °F /  -4.9 °C 30.04 in /  1017.2 hPa WNW 6.0 mph /  9.7 km/h 8.1 mph /  13 km/h 55 % 0.00 in /  0 mm
03:37 37.8 °F /  3.2 °C 22.6 °F /  -5.2 °C 30.05 in /  1017.5 hPa WSW 10.3 mph /  16.6 km/h 13.0 mph /  20.9 km/h 54 % 0.00 in /  0 mm
03:42 37.7 °F /  3.2 °C 22.1 °F /  -5.5 °C 30.05 in /  1017.5 hPa WSW 5.4 mph /  8.7 km/h 11.5 mph /  18.5 km/h 53 % 0.00 in /  0 mm
03:57 37.5 °F /  3.1 °C 22.8 °F /  -5.1 °C 30.04 in /  1017.2 hPa WSW 7.0 mph /  11.3 km/h 10.4 mph /  16.7 km/h 55 % 0.00 in /  0 mm
04:03 37.4 °F /  3 °C 22.7 °F /  -5.2 °C 30.04 in /  1017.2 hPa WSW 4.2 mph /  6.8 km/h 5.8 mph /  9.3 km/h 55 % 0.00 in /  0 mm
04:08 37.4 °F /  3 °C 22.7 °F /  -5.2 °C 30.04 in /  1017.2 hPa West 1.1 mph /  1.8 km/h 3.5 mph /  5.6 km/h 55 % 0.00 in /  0 mm
04:13 37.3 °F /  2.9 °C 23.0 °F /  -5 °C 30.05 in /  1017.5 hPa West 3.5 mph /  5.6 km/h 6.9 mph /  11.1 km/h 56 % 0.00 in /  0 mm
04:18 37.1 °F /  2.8 °C 22.4 °F /  -5.3 °C 30.05 in /  1017.5 hPa SW 3.5 mph /  5.6 km/h 9.2 mph /  14.8 km/h 55 % 0.00 in /  0 mm
04:23 37.1 °F /  2.8 °C 22.4 °F /  -5.3 °C 30.05 in /  1017.5 hPa West 4.0 mph /  6.4 km/h 8.1 mph /  13 km/h 55 % 0.00 in /  0 mm
04:28 37.0 °F /  2.8 °C 22.3 °F /  -5.4 °C 30.05 in /  1017.5 hPa West 4.3 mph /  6.9 km/h 7.0 mph /  11.3 km/h 55 % 0.00 in /  0 mm
04:33 37.0 °F /  2.8 °C 22.3 °F /  -5.4 °C 30.06 in /  1017.8 hPa West 5.8 mph /  9.3 km/h 13.8 mph /  22.2 km/h 55 % 0.00 in /  0 mm
04:38 36.9 °F /  2.7 °C 22.2 °F /  -5.4 °C 30.06 in /  1017.8 hPa West 1.8 mph /  2.9 km/h 10.4 mph /  16.7 km/h 55 % 0.00 in /  0 mm
04:43 36.9 °F /  2.7 °C 22.2 °F /  -5.4 °C 30.05 in /  1017.5 hPa WSW 5.4 mph /  8.7 km/h 11.5 mph /  18.5 km/h 55 % 0.00 in /  0 mm
04:48 36.9 °F /  2.7 °C 22.2 °F /  -5.4 °C 30.05 in /  1017.5 hPa West 4.4 mph /  7.1 km/h 8.1 mph /  13 km/h 55 % 0.00 in /  0 mm
04:53 36.9 °F /  2.7 °C 22.2 °F /  -5.4 °C 30.05 in /  1017.5 hPa WSW 3.7 mph /  6 km/h 6.9 mph /  11.1 km/h 55 % 0.00 in /  0 mm
04:58 36.8 °F /  2.7 °C 22.1 °F /  -5.5 °C 30.06 in /  1017.8 hPa WNW 4.3 mph /  6.9 km/h 9.2 mph /  14.8 km/h 55 % 0.00 in /  0 mm
05:03 36.8 °F /  2.7 °C 22.1 °F /  -5.5 °C 30.06 in /  1017.8 hPa West 3.0 mph /  4.8 km/h 6.9 mph /  11.1 km/h 55 % 0.00 in /  0 mm
05:08 36.7 °F /  2.6 °C 22.0 °F /  -5.6 °C 30.05 in /  1017.5 hPa West 1.1 mph /  1.8 km/h 3.5 mph /  5.6 km/h 55 % 0.00 in /  0 mm
05:23 36.6 °F /  2.6 °C 22.4 °F /  -5.3 °C 30.05 in /  1017.5 hPa WNW 2.7 mph /  4.3 km/h 6.9 mph /  11.1 km/h 56 % 0.00 in /  0 mm
05:28 36.6 °F /  2.6 °C 22.4 °F /  -5.3 °C 30.06 in /  1017.8 hPa West 2.6 mph /  4.2 km/h 6.9 mph /  11.1 km/h 56 % 0.00 in /  0 mm
05:33 36.5 °F /  2.5 °C 22.3 °F /  -5.4 °C 30.06 in /  1017.8 hPa WNW 6.1 mph /  9.8 km/h 11.5 mph /  18.5 km/h 56 % 0.00 in /  0 mm
05:38 36.5 °F /  2.5 °C 22.3 °F /  -5.4 °C 30.06 in /  1017.8 hPa SW 2.8 mph /  4.5 km/h 8.1 mph /  13 km/h 56 % 0.00 in /  0 mm
05:41 36.5 °F /  2.5 °C 22.3 °F /  -5.4 °C 30.06 in /  1017.8 hPa WSW 2.8 mph /  4.5 km/h 5.8 mph /  9.3 km/h 56 % 0.00 in /  0 mm
05:51 36.5 °F /  2.5 °C 22.3 °F /  -5.4 °C 30.07 in /  1018.2 hPa West 4.8 mph /  7.7 km/h 9.2 mph /  14.8 km/h 56 % 0.00 in /  0 mm
05:56 36.4 °F /  2.4 °C 22.6 °F /  -5.2 °C 30.06 in /  1017.8 hPa WNW 3.1 mph /  5 km/h 6.9 mph /  11.1 km/h 57 % 0.00 in /  0 mm
06:02 36.4 °F /  2.4 °C 22.6 °F /  -5.2 °C 30.06 in /  1017.8 hPa West 1.5 mph /  2.4 km/h 4.6 mph /  7.4 km/h 57 % 0.00 in /  0 mm
06:12 36.3 °F /  2.4 °C 22.5 °F /  -5.3 °C 30.06 in /  1017.8 hPa WSW 1.4 mph /  2.3 km/h 3.5 mph /  5.6 km/h 57 % 0.00 in /  0 mm
06:17 36.3 °F /  2.4 °C 22.5 °F /  -5.3 °C 30.06 in /  1017.8 hPa West 2.3 mph /  3.7 km/h 5.0 mph /  8 km/h 57 % 0.00 in /  0 mm
06:22 36.2 °F /  2.3 °C 22.4 °F /  -5.3 °C 30.06 in /  1017.8 hPa WNW 1.7 mph /  2.7 km/h 4.0 mph /  6.4 km/h 57 % 0.00 in /  0 mm
06:27 36.1 °F /  2.3 °C 22.3 °F /  -5.4 °C 30.06 in /  1017.8 hPa WNW 4.4 mph /  7.1 km/h 12.7 mph /  20.4 km/h 57 % 0.00 in /  0 mm
06:32 36.1 °F /  2.3 °C 22.7 °F /  -5.2 °C 30.06 in /  1017.8 hPa WNW 5.4 mph /  8.7 km/h 11.5 mph /  18.5 km/h 58 % 0.00 in /  0 mm
06:37 36.1 °F /  2.3 °C 22.7 °F /  -5.2 °C 30.05 in /  1017.5 hPa WNW 2.9 mph /  4.7 km/h 8.1 mph /  13 km/h 58 % 0.00 in /  0 mm
06:47 36.1 °F /  2.3 °C 22.7 °F /  -5.2 °C 30.06 in /  1017.8 hPa NW 2.3 mph /  3.7 km/h 5.8 mph /  9.3 km/h 58 % 0.00 in /  0 mm
06:52 36.1 °F /  2.3 °C 22.3 °F /  -5.4 °C 30.05 in /  1017.5 hPa NW 1.8 mph /  2.9 km/h 3.5 mph /  5.6 km/h 57 % 0.00 in /  0 mm
06:57 36.0 °F /  2.2 °C 22.6 °F /  -5.2 °C 30.06 in /  1017.8 hPa NNW 4.9 mph /  7.9 km/h 11.5 mph /  18.5 km/h 58 % 0.00 in /  0 mm
07:07 36.0 °F /  2.2 °C 22.6 °F /  -5.2 °C 30.07 in /  1018.2 hPa WSW 1.0 mph /  1.6 km/h 4.6 mph /  7.4 km/h 58 % 0.00 in /  0 mm
07:12 35.9 °F /  2.2 °C 22.5 °F /  -5.3 °C 30.07 in /  1018.2 hPa WNW 2.3 mph /  3.7 km/h 7.0 mph /  11.3 km/h 58 % 0.00 in /  0 mm
07:17 35.9 °F /  2.2 °C 22.5 °F /  -5.3 °C 30.06 in /  1017.8 hPa NW 3.6 mph /  5.8 km/h 4.6 mph /  7.4 km/h 58 % 0.00 in /  0 mm
07:22 35.9 °F /  2.2 °C 23.0 °F /  -5 °C 30.07 in /  1018.2 hPa WSW 1.0 mph /  1.6 km/h 6.0 mph /  9.7 km/h 59 % 0.00 in /  0 mm
07:32 36.0 °F /  2.2 °C 23.0 °F /  -5 °C 30.08 in /  1018.5 hPa WNW 2.8 mph /  4.5 km/h 7.0 mph /  11.3 km/h 59 % 0.00 in /  0 mm
07:42 36.0 °F /  2.2 °C 23.0 °F /  -5 °C 30.07 in /  1018.2 hPa NW 3.7 mph /  6 km/h 5.8 mph /  9.3 km/h 59 % 0.00 in /  0 mm
07:47 36.0 °F /  2.2 °C 23.0 °F /  -5 °C 30.08 in /  1018.5 hPa WSW 3.3 mph /  5.3 km/h 8.1 mph /  13 km/h 59 % 0.00 in /  0 mm
07:52 36.1 °F /  2.3 °C 22.7 °F /  -5.2 °C 30.08 in /  1018.5 hPa WNW 1.5 mph /  2.4 km/h 3.5 mph /  5.6 km/h 58 % 0.00 in /  0 mm
08:07 36.2 °F /  2.3 °C 22.8 °F /  -5.1 °C 30.07 in /  1018.2 hPa WNW 1.9 mph /  3.1 km/h 5.8 mph /  9.3 km/h 58 % 0.00 in /  0 mm
08:12 36.2 °F /  2.3 °C 23.2 °F /  -4.9 °C 30.08 in /  1018.5 hPa NW 2.5 mph /  4 km/h 4.6 mph /  7.4 km/h 59 % 0.00 in /  0 mm
08:17 36.2 °F /  2.3 °C 23.2 °F /  -4.9 °C 30.08 in /  1018.5 hPa NW 4.8 mph /  7.7 km/h 6.0 mph /  9.7 km/h 59 % 0.00 in /  0 mm
08:23 36.2 °F /  2.3 °C 22.8 °F /  -5.1 °C 30.07 in /  1018.2 hPa WSW 1.6 mph /  2.6 km/h 8.1 mph /  13 km/h 58 % 0.00 in /  0 mm
08:28 36.2 °F /  2.3 °C 22.8 °F /  -5.1 °C 30.07 in /  1018.2 hPa West 1.3 mph /  2.1 km/h 5.8 mph /  9.3 km/h 58 % 0.00 in /  0 mm
08:33 36.3 °F /  2.4 °C 22.9 °F /  -5.1 °C 30.07 in /  1018.2 hPa WNW 0.5 mph /  0.8 km/h 4.0 mph /  6.4 km/h 58 % 0.00 in /  0 mm
08:38 36.3 °F /  2.4 °C 22.9 °F /  -5.1 °C 30.08 in /  1018.5 hPa West 3.2 mph /  5.1 km/h 6.9 mph /  11.1 km/h 58 % 0.00 in /  0 mm
08:48 36.3 °F /  2.4 °C 22.9 °F /  -5.1 °C 30.08 in /  1018.5 hPa WSW 4.5 mph /  7.2 km/h 5.8 mph /  9.3 km/h 58 % 0.00 in /  0 mm
08:53 36.3 °F /  2.4 °C 23.3 °F /  -4.8 °C 30.08 in /  1018.5 hPa WSW 3.6 mph /  5.8 km/h 6.9 mph /  11.1 km/h 59 % 0.00 in /  0 mm
08:58 36.3 °F /  2.4 °C 23.3 °F /  -4.8 °C 30.08 in /  1018.5 hPa WNW 3.4 mph /  5.5 km/h 4.6 mph /  7.4 km/h 59 % 0.00 in /  0 mm
09:03 36.3 °F /  2.4 °C 23.3 °F /  -4.8 °C 30.09 in /  1018.8 hPa West 4.0 mph /  6.4 km/h 6.0 mph /  9.7 km/h 59 % 0.00 in /  0 mm
09:08 36.4 °F /  2.4 °C 23.8 °F /  -4.6 °C 30.09 in /  1018.8 hPa West 1.8 mph /  2.9 km/h 3.5 mph /  5.6 km/h 60 % 0.00 in /  0 mm
09:13 36.4 °F /  2.4 °C 23.4 °F /  -4.8 °C 30.08 in /  1018.5 hPa NW 3.6 mph /  5.8 km/h 5.8 mph /  9.3 km/h 59 % 0.00 in /  0 mm
09:18 36.5 °F /  2.5 °C 23.5 °F /  -4.7 °C 30.09 in /  1018.8 hPa WNW 2.9 mph /  4.7 km/h 9.2 mph /  14.8 km/h 59 % 0.00 in /  0 mm
09:28 36.7 °F /  2.6 °C 23.7 °F /  -4.6 °C 30.10 in /  1019.2 hPa West 3.5 mph /  5.6 km/h 7.0 mph /  11.3 km/h 59 % 0.00 in /  0 mm
09:38 36.9 °F /  2.7 °C 23.9 °F /  -4.5 °C 30.10 in /  1019.2 hPa West 3.6 mph /  5.8 km/h 5.0 mph /  8 km/h 59 % 0.00 in /  0 mm
09:43 37.1 °F /  2.8 °C 24.5 °F /  -4.2 °C 30.09 in /  1018.8 hPa WNW 1.1 mph /  1.8 km/h 2.3 mph /  3.7 km/h 60 % 0.00 in /  0 mm
09:49 37.2 °F /  2.9 °C 24.6 °F /  -4.1 °C 30.09 in /  1018.8 hPa South 1.0 mph /  1.6 km/h 3.5 mph /  5.6 km/h 60 % 0.00 in /  0 mm
09:59 37.5 °F /  3.1 °C 24.1 °F /  -4.4 °C 30.09 in /  1018.8 hPa NW 2.3 mph /  3.7 km/h 4.6 mph /  7.4 km/h 58 % 0.00 in /  0 mm
10:19 37.8 °F /  3.2 °C 23.9 °F /  -4.5 °C 30.09 in /  1018.8 hPa WNW 3.6 mph /  5.8 km/h 6.0 mph /  9.7 km/h 57 % 0.00 in /  0 mm
10:34 37.9 °F /  3.3 °C 24.4 °F /  -4.2 °C 30.09 in /  1018.8 hPa WNW 1.5 mph /  2.4 km/h 3.5 mph /  5.6 km/h 58 % 0.00 in /  0 mm
10:39 37.9 °F /  3.3 °C 23.6 °F /  -4.7 °C 30.09 in /  1018.8 hPa NW 2.4 mph /  3.9 km/h 4.0 mph /  6.4 km/h 56 % 0.00 in /  0 mm
10:44 37.9 °F /  3.3 °C 24.0 °F /  -4.4 °C 30.07 in /  1018.2 hPa WNW 2.5 mph /  4 km/h 5.0 mph /  8 km/h 57 % 0.00 in /  0 mm
10:49 38.0 °F /  3.3 °C 24.1 °F /  -4.4 °C 30.08 in /  1018.5 hPa NW 2.9 mph /  4.7 km/h 6.0 mph /  9.7 km/h 57 % 0.00 in /  0 mm
10:59 38.0 °F /  3.3 °C 24.1 °F /  -4.4 °C 30.08 in /  1018.5 hPa WNW 1.9 mph /  3.1 km/h 4.6 mph /  7.4 km/h 57 % 0.00 in /  0 mm
11:09 38.2 °F /  3.4 °C 23.9 °F /  -4.5 °C 30.09 in /  1018.8 hPa WNW 0.5 mph /  0.8 km/h 4.6 mph /  7.4 km/h 56 % 0.00 in /  0 mm
11:19 38.4 °F /  3.6 °C 24.5 °F /  -4.2 °C 30.08 in /  1018.5 hPa WNW 4.3 mph /  6.9 km/h 5.8 mph /  9.3 km/h 57 % 0.00 in /  0 mm
11:24 38.5 °F /  3.6 °C 23.7 °F /  -4.6 °C 30.07 in /  1018.2 hPa NW 2.3 mph /  3.7 km/h 5.8 mph /  9.3 km/h 55 % 0.00 in /  0 mm
11:29 38.5 °F /  3.6 °C 24.1 °F /  -4.4 °C 30.07 in /  1018.2 hPa WSW 1.1 mph /  1.8 km/h 5.8 mph /  9.3 km/h 56 % 0.00 in /  0 mm
11:34 38.5 °F /  3.6 °C 23.7 °F /  -4.6 °C 30.06 in /  1017.8 hPa West 2.8 mph /  4.5 km/h 5.8 mph /  9.3 km/h 55 % 0.00 in /  0 mm
11:39 38.6 °F /  3.7 °C 24.2 °F /  -4.3 °C 30.05 in /  1017.5 hPa WSW 1.0 mph /  1.6 km/h 3.5 mph /  5.6 km/h 56 % 0.00 in /  0 mm
11:44 38.7 °F /  3.7 °C 25.2 °F /  -3.8 °C 30.05 in /  1017.5 hPa West 0.8 mph /  1.3 km/h 3.5 mph /  5.6 km/h 58 % 0.00 in /  0 mm
11:54 38.9 °F /  3.8 °C 24.1 °F /  -4.4 °C 30.06 in /  1017.8 hPa WNW 3.1 mph /  5 km/h 5.8 mph /  9.3 km/h 55 % 0.00 in /  0 mm
11:59 38.9 °F /  3.8 °C 24.1 °F /  -4.4 °C 30.06 in /  1017.8 hPa WNW 4.0 mph /  6.4 km/h 8.1 mph /  13 km/h 55 % 0.00 in /  0 mm
12:05 38.9 °F /  3.8 °C 23.7 °F /  -4.6 °C 30.06 in /  1017.8 hPa NW 3.9 mph /  6.3 km/h 7.0 mph /  11.3 km/h 54 % 0.00 in /  0 mm
12:10 39.1 °F /  3.9 °C 24.3 °F /  -4.3 °C 30.05 in /  1017.5 hPa West 0.2 mph /  0.3 km/h 1.2 mph /  1.9 km/h 55 % 0.00 in /  0 mm
12:15 39.2 °F /  4 °C 24.8 °F /  -4 °C 30.06 in /  1017.8 hPa SW 2.4 mph /  3.9 km/h 5.8 mph /  9.3 km/h 56 % 0.00 in /  0 mm
12:20 39.4 °F /  4.1 °C 25.0 °F /  -3.9 °C 30.06 in /  1017.8 hPa WSW 3.4 mph /  5.5 km/h 7.0 mph /  11.3 km/h 56 % 0.00 in /  0 mm
12:25 39.6 °F /  4.2 °C 24.7 °F /  -4.1 °C 30.05 in /  1017.5 hPa WNW 3.7 mph /  6 km/h 8.0 mph /  12.9 km/h 55 % 0.00 in /  0 mm
12:40 39.7 °F /  4.3 °C 23.5 °F /  -4.7 °C 30.04 in /  1017.2 hPa WNW 2.4 mph /  3.9 km/h 6.9 mph /  11.1 km/h 52 % 0.00 in /  0 mm
12:45 39.7 °F /  4.3 °C 23.5 °F /  -4.7 °C 30.04 in /  1017.2 hPa WNW 0.9 mph /  1.4 km/h 3.5 mph /  5.6 km/h 52 % 0.00 in /  0 mm
12:55 39.7 °F /  4.3 °C 23.0 °F /  -5 °C 30.04 in /  1017.2 hPa West 2.0 mph /  3.2 km/h 4.0 mph /  6.4 km/h 51 % 0.00 in /  0 mm
13:00 39.7 °F /  4.3 °C 24.0 °F /  -4.4 °C 30.04 in /  1017.2 hPa WSW 4.3 mph /  6.9 km/h 6.9 mph /  11.1 km/h 53 % 0.00 in /  0 mm
13:05 39.7 °F /  4.3 °C 24.0 °F /  -4.4 °C 30.04 in /  1017.2 hPa SSW 1.5 mph /  2.4 km/h 3.5 mph /  5.6 km/h 53 % 0.00 in /  0 mm
13:10 39.8 °F /  4.3 °C 24.5 °F /  -4.2 °C 30.04 in /  1017.2 hPa West 1.2 mph /  1.9 km/h 4.0 mph /  6.4 km/h 54 % 0.00 in /  0 mm
13:20 39.9 °F /  4.4 °C 24.1 °F /  -4.4 °C 30.04 in /  1017.2 hPa WSW 4.3 mph /  6.9 km/h 6.0 mph /  9.7 km/h 53 % 0.00 in /  0 mm
13:26 40.0 °F /  4.4 °C 23.8 °F /  -4.6 °C 30.04 in /  1017.2 hPa WSW 1.0 mph /  1.6 km/h 5.0 mph /  8 km/h 52 % 0.00 in /  0 mm
13:31 40.0 °F /  4.4 °C 23.8 °F /  -4.6 °C 30.04 in /  1017.2 hPa West 1.1 mph /  1.8 km/h 3.5 mph /  5.6 km/h 52 % 0.00 in /  0 mm
13:36 40.1 °F /  4.5 °C 23.9 °F /  -4.5 °C 30.04 in /  1017.2 hPa West 1.0 mph /  1.6 km/h 3.0 mph /  4.8 km/h 52 % 0.00 in /  0 mm
13:41 40.1 °F /  4.5 °C 23.4 °F /  -4.8 °C 30.04 in /  1017.2 hPa West 5.0 mph /  8 km/h 7.0 mph /  11.3 km/h 51 % 0.00 in /  0 mm
13:46 40.1 °F /  4.5 °C 23.4 °F /  -4.8 °C 30.04 in /  1017.2 hPa WSW 2.0 mph /  3.2 km/h 6.0 mph /  9.7 km/h 51 % 0.00 in /  0 mm
13:51 40.0 °F /  4.4 °C 23.3 °F /  -4.8 °C 30.04 in /  1017.2 hPa SW 3.0 mph /  4.8 km/h 6.0 mph /  9.7 km/h 51 % 0.00 in /  0 mm
13:55 40.0 °F /  4.4 °C 23.8 °F /  -4.6 °C 30.04 in /  1017.2 hPa SW 2.1 mph /  3.4 km/h 3.5 mph /  5.6 km/h 52 % 0.00 in /  0 mm
14:05 40.0 °F /  4.4 °C 23.8 °F /  -4.6 °C 30.03 in /  1016.8 hPa Calm     52 % 0.00 in /  0 mm
14:11 40.0 °F /  4.4 °C 25.1 °F /  -3.8 °C 30.03 in /  1016.8 hPa SW 1.0 mph /  1.6 km/h 3.0 mph /  4.8 km/h 55 % 0.00 in /  0 mm
14:16 40.0 °F /  4.4 °C 23.8 °F /  -4.6 °C 30.03 in /  1016.8 hPa Calm   4.0 mph /  6.4 km/h 52 % 0.00 in /  0 mm
14:21 40.0 °F /  4.4 °C 24.6 °F /  -4.1 °C 30.03 in /  1016.8 hPa West 1.0 mph /  1.6 km/h 3.0 mph /  4.8 km/h 54 % 0.00 in /  0 mm
14:31 39.7 °F /  4.3 °C 23.5 °F /  -4.7 °C 30.02 in /  1016.5 hPa WSW 2.0 mph /  3.2 km/h 4.0 mph /  6.4 km/h 52 % 0.00 in /  0 mm
14:36 39.7 °F /  4.3 °C 24.0 °F /  -4.4 °C 30.02 in /  1016.5 hPa WSW 3.0 mph /  4.8 km/h 5.0 mph /  8 km/h 53 % 0.00 in /  0 mm
14:41 39.6 °F /  4.2 °C 24.3 °F /  -4.3 °C 30.03 in /  1016.8 hPa West 1.0 mph /  1.6 km/h 2.0 mph /  3.2 km/h 54 % 0.00 in /  0 mm
14:46 39.5 °F /  4.2 °C 24.2 °F /  -4.3 °C 30.02 in /  1016.5 hPa West 1.0 mph /  1.6 km/h 4.0 mph /  6.4 km/h 54 % 0.00 in /  0 mm
14:51 39.5 °F /  4.2 °C 23.8 °F /  -4.6 °C 30.02 in /  1016.5 hPa Calm   2.0 mph /  3.2 km/h 53 % 0.00 in /  0 mm
14:56 39.4 °F /  4.1 °C 24.1 °F /  -4.4 °C 30.02 in /  1016.5 hPa Calm   3.0 mph /  4.8 km/h 54 % 0.00 in /  0 mm
15:01 39.3 °F /  4.1 °C 23.6 °F /  -4.7 °C 30.02 in /  1016.5 hPa Calm   1.2 mph /  1.9 km/h 53 % 0.00 in /  0 mm
15:06 39.3 °F /  4.1 °C 24.0 °F /  -4.4 °C 30.03 in /  1016.8 hPa West 1.7 mph /  2.7 km/h 3.5 mph /  5.6 km/h 54 % 0.00 in /  0 mm
15:11 39.2 °F /  4 °C 23.5 °F /  -4.7 °C 30.03 in /  1016.8 hPa West 0.6 mph /  1 km/h 2.0 mph /  3.2 km/h 53 % 0.00 in /  0 mm
15:21 39.1 °F /  3.9 °C 23.8 °F /  -4.6 °C 30.03 in /  1016.8 hPa WSW 1.6 mph /  2.6 km/h 3.5 mph /  5.6 km/h 54 % 0.00 in /  0 mm
15:26 39.0 °F /  3.9 °C 23.7 °F /  -4.6 °C 30.03 in /  1016.8 hPa SW 1.6 mph /  2.6 km/h 1.6 mph /  2.6 km/h 54 % 0.00 in /  0 mm
15:36 38.9 °F /  3.8 °C 23.7 °F /  -4.6 °C 30.02 in /  1016.5 hPa Calm     54 % 0.00 in /  0 mm
15:46 38.7 °F /  3.7 °C 23.5 °F /  -4.7 °C 30.02 in /  1016.5 hPa SW 1.0 mph /  1.6 km/h 2.3 mph /  3.7 km/h 54 % 0.00 in /  0 mm
15:51 38.7 °F /  3.7 °C 23.5 °F /  -4.7 °C 30.03 in /  1016.8 hPa Calm     54 % 0.00 in /  0 mm
15:56 38.6 °F /  3.7 °C 23.4 °F /  -4.8 °C 30.03 in /  1016.8 hPa Calm     54 % 0.00 in /  0 mm
16:01 38.6 °F /  3.7 °C 23.8 °F /  -4.6 °C 30.03 in /  1016.8 hPa SW 1.4 mph /  2.3 km/h 3.5 mph /  5.6 km/h 55 % 0.00 in /  0 mm
16:06 38.5 °F /  3.6 °C 23.3 °F /  -4.8 °C 30.03 in /  1016.8 hPa SW 0.3 mph /  0.5 km/h 1.2 mph /  1.9 km/h 54 % 0.00 in /  0 mm
16:21 38.3 °F /  3.5 °C 23.5 °F /  -4.7 °C 30.02 in /  1016.5 hPa Calm     55 % 0.00 in /  0 mm
16:26 38.3 °F /  3.5 °C 23.5 °F /  -4.7 °C 30.02 in /  1016.5 hPa Calm     55 % 0.00 in /  0 mm
16:36 38.2 °F /  3.4 °C 23.4 °F /  -4.8 °C 30.02 in /  1016.5 hPa SW 0.1 mph /  0.2 km/h 1.2 mph /  1.9 km/h 55 % 0.00 in /  0 mm
16:46 38.1 °F /  3.4 °C 23.3 °F /  -4.8 °C 30.02 in /  1016.5 hPa SW 0.3 mph /  0.5 km/h 1.2 mph /  1.9 km/h 55 % 0.00 in /  0 mm
16:51 38.1 °F /  3.4 °C 23.3 °F /  -4.8 °C 30.02 in /  1016.5 hPa Calm     55 % 0.00 in /  0 mm
16:56 38.0 °F /  3.3 °C 23.3 °F /  -4.8 °C 30.02 in /  1016.5 hPa Calm     55 % 0.00 in /  0 mm
17:01 38.0 °F /  3.3 °C 23.3 °F /  -4.8 °C 30.02 in /  1016.5 hPa Calm     55 % 0.00 in /  0 mm
17:11 37.9 °F /  3.3 °C 23.6 °F /  -4.7 °C 30.02 in /  1016.5 hPa SW 0.4 mph /  0.6 km/h 2.3 mph /  3.7 km/h 56 % 0.00 in /  0 mm
17:16 37.9 °F /  3.3 °C 23.6 °F /  -4.7 °C 30.02 in /  1016.5 hPa Calm     56 % 0.00 in /  0 mm
17:21 37.9 °F /  3.3 °C 23.6 °F /  -4.7 °C 30.03 in /  1016.8 hPa SW 0.5 mph /  0.8 km/h 1.2 mph /  1.9 km/h 56 % 0.00 in /  0 mm
17:26 37.9 °F /  3.3 °C 23.6 °F /  -4.7 °C 30.02 in /  1016.5 hPa SW 0.1 mph /  0.2 km/h 1.2 mph /  1.9 km/h 56 % 0.00 in /  0 mm
17:31 37.8 °F /  3.2 °C 23.5 °F /  -4.7 °C 30.03 in /  1016.8 hPa SW 0.3 mph /  0.5 km/h 2.3 mph /  3.7 km/h 56 % 0.00 in /  0 mm
17:36 37.8 °F /  3.2 °C 23.5 °F /  -4.7 °C 30.03 in /  1016.8 hPa SW 0.2 mph /  0.3 km/h 2.3 mph /  3.7 km/h 56 % 0.00 in /  0 mm
17:41 37.8 °F /  3.2 °C 23.5 °F /  -4.7 °C 30.03 in /  1016.8 hPa Calm   2.3 mph /  3.7 km/h 56 % 0.00 in /  0 mm
18:01 37.7 °F /  3.2 °C 23.4 °F /  -4.8 °C 30.03 in /  1016.8 hPa SW 2.7 mph /  4.3 km/h 3.5 mph /  5.6 km/h 56 % 0.00 in /  0 mm
18:06 37.7 °F /  3.2 °C 23.4 °F /  -4.8 °C 30.02 in /  1016.5 hPa WSW 0.5 mph /  0.8 km/h 2.3 mph /  3.7 km/h 56 % 0.00 in /  0 mm
18:11 37.7 °F /  3.2 °C 23.4 °F /  -4.8 °C 30.02 in /  1016.5 hPa SSW 2.2 mph /  3.5 km/h 3.5 mph /  5.6 km/h 56 % 0.00 in /  0 mm
18:16 37.7 °F /  3.2 °C 23.4 °F /  -4.8 °C 30.01 in /  1016.1 hPa SSW 0.6 mph /  1 km/h 2.3 mph /  3.7 km/h 56 % 0.00 in /  0 mm
18:21 37.7 °F /  3.2 °C 23.4 °F /  -4.8 °C 30.01 in /  1016.1 hPa SW 2.4 mph /  3.9 km/h 3.5 mph /  5.6 km/h 56 % 0.00 in /  0 mm
18:26 37.7 °F /  3.2 °C 23.4 °F /  -4.8 °C 30.00 in /  1015.8 hPa SW 0.4 mph /  0.6 km/h 1.2 mph /  1.9 km/h 56 % 0.00 in /  0 mm
18:41 37.7 °F /  3.2 °C 23.4 °F /  -4.8 °C 30.00 in /  1015.8 hPa SSW 1.0 mph /  1.6 km/h 3.5 mph /  5.6 km/h 56 % 0.00 in /  0 mm
18:47 37.7 °F /  3.2 °C 23.4 °F /  -4.8 °C 30.00 in /  1015.8 hPa SSW 0.3 mph /  0.5 km/h 3.5 mph /  5.6 km/h 56 % 0.00 in /  0 mm
18:52 37.7 °F /  3.2 °C 23.8 °F /  -4.6 °C 30.00 in /  1015.8 hPa SW 1.2 mph /  1.9 km/h 2.3 mph /  3.7 km/h 57 % 0.00 in /  0 mm
19:01 37.6 °F /  3.1 °C 22.9 °F /  -5.1 °C 30.01 in /  1016.1 hPa WSW 2.3 mph /  3.7 km/h 5.8 mph /  9.3 km/h 55 % 0.00 in /  0 mm
19:06 37.6 °F /  3.1 °C 22.9 °F /  -5.1 °C 30.01 in /  1016.1 hPa WSW 1.5 mph /  2.4 km/h 4.6 mph /  7.4 km/h 55 % 0.00 in /  0 mm
19:11 37.6 °F /  3.1 °C 22.9 °F /  -5.1 °C 30.01 in /  1016.1 hPa SW 0.3 mph /  0.5 km/h 2.3 mph /  3.7 km/h 55 % 0.00 in /  0 mm
19:16 37.6 °F /  3.1 °C 22.9 °F /  -5.1 °C 30.00 in /  1015.8 hPa SW 1.5 mph /  2.4 km/h 3.5 mph /  5.6 km/h 55 % 0.00 in /  0 mm
19:26 37.6 °F /  3.1 °C 22.9 °F /  -5.1 °C 29.99 in /  1015.5 hPa SW 0.5 mph /  0.8 km/h 2.3 mph /  3.7 km/h 55 % 0.00 in /  0 mm
19:31 37.6 °F /  3.1 °C 22.9 °F /  -5.1 °C 29.99 in /  1015.5 hPa SW 1.8 mph /  2.9 km/h 3.5 mph /  5.6 km/h 55 % 0.00 in /  0 mm
19:41 37.5 °F /  3.1 °C 21.9 °F /  -5.6 °C 29.99 in /  1015.5 hPa SSW 1.0 mph /  1.6 km/h 3.5 mph /  5.6 km/h 53 % 0.00 in /  0 mm
19:51 37.5 °F /  3.1 °C 21.9 °F /  -5.6 °C 29.99 in /  1015.5 hPa West 0.2 mph /  0.3 km/h 2.3 mph /  3.7 km/h 53 % 0.00 in /  0 mm
19:56 37.5 °F /  3.1 °C 21.9 °F /  -5.6 °C 29.99 in /  1015.5 hPa WSW 2.0 mph /  3.2 km/h 4.6 mph /  7.4 km/h 53 % 0.00 in /  0 mm
20:02 37.5 °F /  3.1 °C 21.9 °F /  -5.6 °C 30.00 in /  1015.8 hPa WSW 0.6 mph /  1 km/h 2.3 mph /  3.7 km/h 53 % 0.00 in /  0 mm
20:07 37.4 °F /  3 °C 21.8 °F /  -5.7 °C 30.00 in /  1015.8 hPa Calm   2.3 mph /  3.7 km/h 53 % 0.00 in /  0 mm
20:17 37.4 °F /  3 °C 22.3 °F /  -5.4 °C 30.00 in /  1015.8 hPa WSW 2.3 mph /  3.7 km/h 4.6 mph /  7.4 km/h 54 % 0.00 in /  0 mm
20:22 37.4 °F /  3 °C 22.3 °F /  -5.4 °C 30.00 in /  1015.8 hPa West 1.0 mph /  1.6 km/h 3.5 mph /  5.6 km/h 54 % 0.00 in /  0 mm
20:37 37.4 °F /  3 °C 22.7 °F /  -5.2 °C 29.99 in /  1015.5 hPa WSW 0.5 mph /  0.8 km/h 3.5 mph /  5.6 km/h 55 % 0.00 in /  0 mm
20:42 37.4 °F /  3 °C 22.7 °F /  -5.2 °C 29.98 in /  1015.1 hPa West 1.1 mph /  1.8 km/h 3.5 mph /  5.6 km/h 55 % 0.00 in /  0 mm
20:47 37.4 °F /  3 °C 23.1 °F /  -4.9 °C 29.98 in /  1015.1 hPa SW 0.6 mph /  1 km/h 2.3 mph /  3.7 km/h 56 % 0.00 in /  0 mm
20:52 37.4 °F /  3 °C 23.5 °F /  -4.7 °C 29.98 in /  1015.1 hPa NW 0.8 mph /  1.3 km/h 3.5 mph /  5.6 km/h 57 % 0.00 in /  0 mm
20:57 37.5 °F /  3.1 °C 23.6 °F /  -4.7 °C 29.98 in /  1015.1 hPa WNW 3.3 mph /  5.3 km/h 8.0 mph /  12.9 km/h 57 % 0.00 in /  0 mm
21:07 37.5 °F /  3.1 °C 23.2 °F /  -4.9 °C 29.97 in /  1014.8 hPa West 1.9 mph /  3.1 km/h 4.6 mph /  7.4 km/h 56 % 0.00 in /  0 mm
21:12 37.4 °F /  3 °C 23.1 °F /  -4.9 °C 29.97 in /  1014.8 hPa West 3.6 mph /  5.8 km/h 5.0 mph /  8 km/h 56 % 0.00 in /  0 mm
21:27 37.4 °F /  3 °C 22.7 °F /  -5.2 °C 29.97 in /  1014.8 hPa West 4.5 mph /  7.2 km/h 5.0 mph /  8 km/h 55 % 0.00 in /  0 mm
21:32 37.4 °F /  3 °C 22.3 °F /  -5.4 °C 29.97 in /  1014.8 hPa West 1.2 mph /  1.9 km/h 4.6 mph /  7.4 km/h 54 % 0.00 in /  0 mm
21:38 37.4 °F /  3 °C 22.3 °F /  -5.4 °C 29.97 in /  1014.8 hPa West 3.0 mph /  4.8 km/h 6.0 mph /  9.7 km/h 54 % 0.00 in /  0 mm
21:43 37.4 °F /  3 °C 22.3 °F /  -5.4 °C 29.98 in /  1015.1 hPa West 3.8 mph /  6.1 km/h 5.8 mph /  9.3 km/h 54 % 0.00 in /  0 mm
21:48 37.4 °F /  3 °C 22.3 °F /  -5.4 °C 29.98 in /  1015.1 hPa SW 4.0 mph /  6.4 km/h 6.9 mph /  11.1 km/h 54 % 0.00 in /  0 mm
21:53 37.4 °F /  3 °C 21.8 °F /  -5.7 °C 29.98 in /  1015.1 hPa WNW 4.9 mph /  7.9 km/h 9.0 mph /  14.5 km/h 53 % 0.00 in /  0 mm
21:58 37.3 °F /  2.9 °C 21.3 °F /  -5.9 °C 29.98 in /  1015.1 hPa WNW 0.7 mph /  1.1 km/h 3.5 mph /  5.6 km/h 52 % 0.00 in /  0 mm
22:03 37.3 °F /  2.9 °C 21.7 °F /  -5.7 °C 29.98 in /  1015.1 hPa WSW 4.9 mph /  7.9 km/h 8.0 mph /  12.9 km/h 53 % 0.00 in /  0 mm
22:08 37.2 °F /  2.9 °C 21.6 °F /  -5.8 °C 29.98 in /  1015.1 hPa West 2.0 mph /  3.2 km/h 3.5 mph /  5.6 km/h 53 % 0.00 in /  0 mm
22:14 37.2 °F /  2.9 °C 21.6 °F /  -5.8 °C 29.99 in /  1015.5 hPa WNW 2.0 mph /  3.2 km/h 7.0 mph /  11.3 km/h 53 % 0.00 in /  0 mm
22:19 37.2 °F /  2.9 °C 21.6 °F /  -5.8 °C 29.98 in /  1015.1 hPa Calm   2.3 mph /  3.7 km/h 53 % 0.00 in /  0 mm
22:24 37.1 °F /  2.8 °C 22.0 °F /  -5.6 °C 29.98 in /  1015.1 hPa West 0.3 mph /  0.5 km/h 2.3 mph /  3.7 km/h 54 % 0.00 in /  0 mm
22:25 37.1 °F /  2.8 °C 22.4 °F /  -5.3 °C 29.98 in /  1015.1 hPa WSW 2.2 mph /  3.5 km/h 3.5 mph /  5.6 km/h 55 % 0.00 in /  0 mm
22:28 37.1 °F /  2.8 °C 22.4 °F /  -5.3 °C 29.98 in /  1015.1 hPa WSW 2.4 mph /  3.9 km/h 6.0 mph /  9.7 km/h 55 % 0.00 in /  0 mm
22:33 37.1 °F /  2.8 °C 22.0 °F /  -5.6 °C 29.99 in /  1015.5 hPa West 1.3 mph /  2.1 km/h 3.0 mph /  4.8 km/h 54 % 0.00 in /  0 mm
22:43 37.0 °F /  2.8 °C 21.9 °F /  -5.6 °C 29.99 in /  1015.5 hPa WNW 0.4 mph /  0.6 km/h 2.3 mph /  3.7 km/h 54 % 0.00 in /  0 mm
22:48 37.0 °F /  2.8 °C 21.9 °F /  -5.6 °C 29.99 in /  1015.5 hPa WNW 0.3 mph /  0.5 km/h 2.3 mph /  3.7 km/h 54 % 0.00 in /  0 mm
22:53 37.0 °F /  2.8 °C 21.9 °F /  -5.6 °C 29.98 in /  1015.1 hPa West 1.6 mph /  2.6 km/h 3.5 mph /  5.6 km/h 54 % 0.00 in /  0 mm
22:59 36.9 °F /  2.7 °C 21.8 °F /  -5.7 °C 29.99 in /  1015.5 hPa SW 3.5 mph /  5.6 km/h 7.0 mph /  11.3 km/h 54 % 0.00 in /  0 mm
23:04 36.9 °F /  2.7 °C 22.2 °F /  -5.4 °C 29.98 in /  1015.1 hPa West 1.9 mph /  3.1 km/h 3.5 mph /  5.6 km/h 55 % 0.00 in /  0 mm
23:09 36.9 °F /  2.7 °C 22.2 °F /  -5.4 °C 29.98 in /  1015.1 hPa WSW 3.4 mph /  5.5 km/h 3.5 mph /  5.6 km/h 55 % 0.00 in /  0 mm
23:14 36.9 °F /  2.7 °C 22.2 °F /  -5.4 °C 29.97 in /  1014.8 hPa West 1.9 mph /  3.1 km/h 3.5 mph /  5.6 km/h 55 % 0.00 in /  0 mm
23:19 36.9 °F /  2.7 °C 22.7 °F /  -5.2 °C 29.97 in /  1014.8 hPa West 1.5 mph /  2.4 km/h 3.5 mph /  5.6 km/h 56 % 0.00 in /  0 mm
23:24 36.8 °F /  2.7 °C 22.1 °F /  -5.5 °C 29.97 in /  1014.8 hPa West 2.4 mph /  3.9 km/h 5.8 mph /  9.3 km/h 55 % 0.00 in /  0 mm
23:29 36.8 °F /  2.7 °C 22.1 °F /  -5.5 °C 29.96 in /  1014.4 hPa WNW 0.3 mph /  0.5 km/h 4.6 mph /  7.4 km/h 55 % 0.00 in /  0 mm
23:39 36.8 °F /  2.7 °C 21.7 °F /  -5.7 °C 29.96 in /  1014.4 hPa SW 1.6 mph /  2.6 km/h 6.0 mph /  9.7 km/h 54 % 0.00 in /  0 mm
23:44 36.7 °F /  2.6 °C 21.6 °F /  -5.8 °C 29.95 in /  1014.1 hPa West 2.5 mph /  4 km/h 3.5 mph /  5.6 km/h 54 % 0.00 in /  0 mm
23:49 36.7 °F /  2.6 °C 22.5 °F /  -5.3 °C 29.96 in /  1014.4 hPa West 3.7 mph /  6 km/h 6.0 mph /  9.7 km/h 56 % 0.00 in /  0 mm
23:54 36.6 °F /  2.6 °C 22.4 °F /  -5.3 °C 29.95 in /  1014.1 hPa WNW 1.3 mph /  2.1 km/h 5.8 mph /  9.3 km/h 56 % 0.00 in /  0 mm
23:55 36.6 °F /  2.6 °C 22.4 °F /  -5.3 °C 29.95 in /  1014.1 hPa West 2.4 mph /  3.9 km/h 5.8 mph /  9.3 km/h 56 % 0.00 in /  0 mm
Crab Meadow Weather
Compliments of Weather Underground - 2.5 mb

Script developed by  Jim McMurry - jmcmurry@mwt.net Adapted for the template by  Wim van der Kuil - Leuven-Template.eu

Extremes: Alaska and Hawaii have the same heat record. In Pahala, Hawaii the temperature on April 27, 1931 was 100 degrees F. Alaska's state heat record is also 100 degrees F. on June 27, 1915 at Fort Yukon.